Location: Brno
(49.2000°N, 16.6330°E)
Time: 20:38:44
(UTC+02:00)

Vanguard 3 - Pass Details

Date: 31 July 2021
Orbit: 510 x 3260 km, 33.3° (Epoch: 20 September)

Event Time Altitude Azimuth Distance (km) Brightness Sun altitude
Rises 21:17:31 0° 255° (WSW) 6,357 12.3 -6.7°
Reaches altitude 10° 21:21:33 10° 250° (WSW) 5,617 11.9 -7.2°
Maximum altitude 21:38:30 48° 184° (S) 3,913 10.3 -9.3°
Enters shadow 21:55:56 10° 119° (ESE) 5,767 10.9 -11.4°
Drops below altitude 10° 21:55:59 10° 119° (ESE) 5,775 - -11.4°
Sets 22:00:12 0° 114° (ESE) 6,540 - -11.9°
